Temp
35 33 31 34 33 33 33 30 29 30 35 31 31 29 34 34 33 32 31 30 30 31 32 34 33 32 31 30 30 30 28 28 27 27 27 27 27 26 26 26 25 24 26 24
34 32 35 37 34 34 31 29 26 32 34 32 31 31 33 34 33 33 32 31 31 31 31 32 33 31 30 30 30 29 28 27 27 27 28 28 28 26 27 27 27 26 26 26
32 34 38 37 35 35 31 30 30 34 37 35 31 30 26 32 31 33 34 33 33 32 31 31 31 31 30 30 30 29 29 28 27 28 28 27 27 27 27 27 27 27 26 26
34 36 37 37 37 35 33 33 32 33 35 33 35 27 26 28 29 29 33 33 33 33 32 32 31 31 30 29 30 30 29 29 28 28 28 28 28 27 28 28 28 27 26 26
33 35 36 36 37 38 36 35 32 38 36 37 36 28 29 27 27 30 34 34 33 34 34 33 32 33 30 29 29 30 29 28 28 28 27 28 28 28 28 28 28 27 26 26
35 37 37 38 38 38 39 37 37 37 34 32 33 31 30 28 30 31 31 32 34 34 34 34 34 33 32 30 29 29 29 29 28 28 28 27 28 28 28 27 27 27 26 27
34 35 36 40 38 36 38 34 30 30 30 30 31 29 28 32 34 34 33 33 31 34 34 34 34 33 32 30 29 28 28 28 28 28 28 27 27 28 28 28 28 27 27 27
31 31 35 38 37 36 35 34 29 32 30 32 32 28 31 34 34 34 33 33 32 32 34 35 33 34 33 31 30 28 28 27 28 28 28 28 28 27 27 27 28 28 28 27
31 32 36 37 38 35 33 32 33 33 33 31 31 31 33 33 32 31 30 33 31 34 35 35 33 34 32 32 30 29 28 28 28 28 27 27 27 27 27 27 28 28 28 27
33 31 34 36 37 36 34 34 32 29 32 32 33 32 30 32 32 32 32 32 32 33 35 36 34 34 33 32 31 30 29 29 29 28 28 27 27 27 27 27 27 28 27 28
33 32 34 36 35 34 34 32 34 30 30 29 29 30 32 33 34 34 33 35 33 35 36 36 36 35 34 33 31 29 28 28 28 27 27 26 26 26 27 27 27 28 27 27
34 33 31 34 36 36 35 33 32 28 31 30 30 32 37 35 35 36 33 35 33 30 30 30 35 35 34 32 30 29 28 28 28 28 27 27 27 27 27 26 27 27 28 27
36 31 29 31 33 36 34 35 35 33 31 31 31 33 34 35 35 36 34 32 27 28 25 26 30 33 34 32 31 29 29 29 29 28 28 27 27 27 28 27 27 27 27 27
34 32 31 29 31 36 35 35 35 33 31 31 32 33 36 38 36 34 34 34 30 27 26 29 28 34 33 30 31 30 30 30 29 29 28 27 27 27 27 27 27 27 27 27
34 32 35 33 35 36 37 36 35 34 33 33 35 34 36 34 34 34 34 34 34 32 29 28 30 30 29 29 29 31 31 30 29 28 28 28 28 28 27 27 27 27 27 27
34 31 33 32 35 36 37 38 36 35 35 34 35 34 33 34 32 33 34 34 34 34 32 30 29 29 29 28 28 29 29 29 29 28 27 27 27 27 26 26 26 27 27 26
33 31 31 30 33 34 33 37 37 37 36 35 34 32 32 34 34 32 32 33 33 31 30 30 29 28 28 27 28 28 29 29 28 27 27 27 27 26 26 26 26 26 26 26
32 32 30 29 31 31 32 37 38 37 38 36 34 32 33 32 32 32 32 33 32 31 30 29 29 28 27 28 28 28 28 27 27 27 27 27 27 26 26 26 26 26 26 26
33 32 30 29 29 32 36 36 37 33 34 34 32 32 32 33 35 25 22 28 32 30 30 31 30 29 28 28 28 28 27 27 27 27 27 27 27 27 27 27 27 27 27 27
35 35 30 30 31 31 32 35 35 35 32 36 32 31 32 32 26 23 21 21 21 31 32 31 30 29 28 27 27 27 27 27 27 27 27 27 27 27 27 27 27 26 26 26
29 29 30 30 31 33 30 30 34 32 30 35 32 30 30 24 23 20 21 21 23 21 26 30 29 28 27 27 27 27 27 27 27 28 28 28 28 28 27 27 26 26 26 26
29 28 29 30 32 31 29 32 34 31 32 31 33 30 23 22 21 20 20 20 22 21 21 29 28 29 29 29 28 28 28 28 28 28 28 27 27 27 27 26 26 27 26 26
28 26 25 28 27 26 26 30 30 32 31 31 32 26 25 23 24 23 22 20 17 19 23 30 29 29 30 29 29 29 29 29 28 28 27 27 27 27 27 27 26 26 27 26
27 24 25 28 27 26 25 29 34 31 32 32 33 28 26 26 24 25 24 24 21 23 29 30 29 29 29 30 30 30 29 29 28 28 27 27 27 27 27 27 26 26 26 26
24 23 23 25 24 23 25 29 32 32 34 35 34 28 28 26 24 24 23 22 23 27 30 29 28 29 28 29 29 28 28 28 28 27 26 26 27 26 26 26 26 26 26 25
21 23 25 25 23 25 22 26 27 24 34 34 34 33 29 26 23 20 21 20 28 24 27 28 26 26 26 25 25 26 26 26 26 26 25 26 26 26 26 26 25 25 25 24
Height
739 766 778 758 754 757 774 795 808 791 759 779 782 795 768 766 772 778 780 783 786 788 789 793 797 801 806 811 816 820 824 826 829 832 834 835 838 842 843 842 844 849 851 848
755 776 745 733 745 753 779 797 807 772 754 761 773 785 770 764 765 765 772 777 781 784 788 792 795 800 804 808 813 817 821 824 828 830 831 833 835 838 838 838 842 847 848 844
765 751 728 734 750 759 775 785 786 767 742 748 773 799 809 767 768 763 758 761 767 776 784 788 791 796 800 804 808 813 818 821 824 827 829 831 833 835 838 838 841 842 844 845
749 729 733 739 743 746 776 762 775 773 763 790 748 832 810 785 781 775 761 763 765 769 773 780 785 791 794 798 803 809 814 818 822 825 827 827 829 832 832 834 836 839 840 841
755 739 739 745 737 723 747 747 759 737 755 757 761 809 800 793 794 774 760 755 757 761 764 772 776 782 787 792 798 805 810 815 819 822 825 826 827 830 832 832 831 835 837 840
735 711 720 723 715 716 714 730 734 737 758 801 769 789 803 798 792 776 757 751 752 753 756 760 767 774 779 787 794 800 805 809 814 819 822 824 826 829 832 833 832 833 836 836
743 734 717 706 729 723 724 753 806 810 812 813 769 790 789 757 737 733 742 745 748 749 749 754 759 768 774 781 788 795 800 805 809 813 817 821 824 827 831 833 834 834 834 833
776 781 732 712 728 742 746 756 807 816 820 799 767 806 775 733 731 731 736 734 739 747 744 749 754 760 768 774 782 789 795 801 806 808 812 817 821 826 829 831 832 832 831 833
768 765 713 711 710 727 752 770 742 773 765 796 785 775 746 737 742 746 746 740 748 742 741 746 749 757 764 771 777 782 789 795 801 806 809 814 819 823 826 829 830 831 831 831
738 772 724 712 708 715 734 729 777 781 803 814 786 781 783 753 746 746 740 746 740 738 732 737 744 751 758 768 775 780 784 789 796 802 806 813 817 820 825 828 828 830 830 831
724 747 738 715 729 743 744 757 750 764 779 811 816 791 732 734 726 735 747 726 727 729 727 733 739 745 750 762 770 777 783 788 794 799 806 811 815 818 821 823 827 828 829 830
714 734 762 743 709 704 719 741 747 793 787 776 781 772 703 709 711 719 719 714 716 727 745 749 738 743 746 756 766 773 779 784 789 796 803 808 811 813 816 820 825 827 827 828
711 745 777 762 733 712 730 725 727 738 747 774 787 769 708 706 710 703 711 716 728 739 754 753 738 748 744 752 762 769 775 780 788 794 799 804 807 810 813 816 819 822 824 824
704 732 753 780 755 724 737 726 723 737 771 767 762 744 724 708 714 709 710 714 724 739 741 734 737 743 742 749 758 765 773 779 785 791 796 801 806 808 811 813 817 819 820 820
709 743 726 728 719 714 712 718 721 734 737 753 742 741 720 719 715 711 707 708 716 724 726 732 735 739 743 751 758 765 771 777 783 790 795 799 803 806 808 811 813 814 816 817
705 743 728 740 718 713 717 706 710 715 717 723 724 732 710 697 702 710 707 710 715 717 721 726 728 736 743 750 757 763 771 777 783 788 793 797 801 804 806 809 810 811 812 813
720 734 745 761 727 724 744 710 706 704 704 711 734 722 709 706 707 710 709 706 712 717 722 728 732 739 745 751 756 764 772 778 783 788 793 796 798 801 804 806 806 808 807 809
723 728 737 757 742 774 724 684 686 698 692 690 697 706 703 702 701 704 709 705 711 715 720 726 734 743 750 754 760 765 770 776 782 787 790 794 797 799 802 804 805 806 807 808
701 719 745 761 761 735 707 695 698 720 717 692 704 704 703 699 701 734 734 733 717 713 720 722 732 740 746 755 759 765 771 776 781 785 789 791 796 798 801 803 805 806 807 807
697 698 733 742 754 763 719 687 677 681 737 690 695 702 703 702 746 749 731 744 750 727 720 726 733 741 747 752 759 767 773 776 781 785 790 793 796 798 801 803 805 806 806 806
734 728 736 738 743 723 705 694 676 737 744 692 689 695 700 728 735 739 723 739 740 743 748 730 737 746 751 758 762 768 773 777 782 786 790 792 795 797 800 803 804 804 804 803
737 748 740 728 734 749 694 687 706 702 694 695 690 696 718 727 735 736 742 757 754 756 767 738 745 753 757 760 766 771 775 779 782 786 790 793 795 797 799 802 802 802 802 801
739 735 749 740 747 724 710 689 684 678 683 697 691 701 705 722 723 722 714 747 755 766 765 740 746 755 756 760 766 770 773 778 783 787 790 793 795 797 799 800 800 800 799 798
717 721 734 729 726 719 720 686 667 674 688 687 683 693 699 705 715 715 714 721 745 747 741 738 743 753 755 760 767 772 775 779 782 784 790 793 794 795 797 798 798 798 798 796
723 727 736 733 737 732 720 690 680 682 682 680 678 691 696 704 715 721 726 734 739 740 737 739 748 755 757 761 764 770 777 782 784 784 787 791 793 794 795 796 796 797 797 795
731 733 733 741 736 735 725 693 701 703 687 679 681 684 698 710 725 737 743 739 737 733 737 742 750 755 760 768 774 774 777 781 785 787 787 787 791 793 794 794 794 795 795 795
Wind_Speed
8 4 8 12 8 10 14 12 5 12 17 8 23 4 16 16 15 13 11 10 9 9 13 21 21 26 31 30 25 19 24 26 24 18 13 11 10 10 16 11 11 11 8 10
6 7 14 12 9 11 20 19 14 12 6 7 11 13 10 15 17 18 14 13 11 9 11 17 24 24 35 33 27 18 22 26 23 15 15 12 6 10 13 8 8 8 7 8
9 10 15 16 10 14 14 17 15 10 9 3 11 2 9 2 3 12 16 19 16 14 15 14 18 27 33 34 31 26 25 29 24 17 18 13 8 9 12 15 12 10 8 7
8 14 14 11 10 13 9 17 19 26 6 5 10 3 6 5 7 5 14 17 17 17 15 16 19 26 32 36 35 33 27 27 23 22 16 19 15 10 11 11 12 12 10 8
12 11 8 10 9 10 9 28 30 15 3 2 3 6 5 4 7 13 14 17 17 20 19 21 22 27 34 36 38 36 32 27 24 25 18 17 12 12 10 5 12 17 12 8
9 10 5 7 7 8 6 7 7 3 3 1 10 9 3 8 2 11 8 9 14 20 20 19 32 32 31 36 35 39 38 33 28 24 23 17 18 14 8 9 18 17 14 9
9 11 9 1 4 8 4 5 4 5 4 6 9 7 9 19 25 25 20 13 10 17 18 17 17 27 25 36 35 36 39 36 33 28 25 23 19 17 11 4 13 15 18 14
6 8 7 5 6 3 7 6 5 6 5 4 4 5 5 16 9 15 12 7 8 11 16 18 13 28 27 36 35 35 38 35 36 31 29 25 24 16 12 9 9 3 13 17
5 11 10 11 6 11 10 5 11 3 5 5 4 3 5 8 5 6 8 8 9 10 16 16 12 29 26 32 34 37 38 37 36 34 28 25 21 21 15 12 12 11 6 14
12 7 10 12 8 7 9 8 4 4 3 5 1 6 6 9 7 12 16 19 17 15 17 17 13 29 29 32 32 38 40 39 35 32 31 24 21 19 19 14 15 16 16 16
10 5 16 2 6 8 1 7 2 3 5 6 2 5 7 16 16 19 18 30 30 25 15 15 16 30 33 34 34 36 35 33 31 28 24 22 19 17 19 20 11 18 11 14
10 3 6 8 8 11 8 10 8 5 10 4 5 5 7 19 16 17 19 10 13 12 19 11 9 28 32 33 32 35 34 33 29 26 21 23 21 21 19 18 18 15 17 16
4 3 4 11 8 4 9 9 6 5 3 8 2 5 4 8 8 11 9 20 15 21 37 29 13 12 28 31 30 32 33 30 26 22 19 27 25 24 14 16 17 16 17 15
3 4 8 7 9 1 5 7 9 6 2 5 4 3 3 11 8 8 10 17 21 20 38 27 7 11 22 28 33 34 31 28 27 24 20 23 23 21 20 15 20 17 16 17
4 5 3 8 9 12 8 13 12 8 9 4 3 5 5 9 10 9 9 8 12 14 11 13 11 14 22 23 27 31 29 30 27 22 16 15 16 14 16 18 16 13 13 13
2 5 5 8 10 11 13 7 13 11 11 8 6 2 6 9 11 7 12 10 8 7 15 17 18 17 21 26 27 31 30 27 22 15 16 15 13 12 10 10 11 12 12 13
5 3 2 7 9 9 7 6 6 4 8 10 7 8 6 5 9 9 10 11 10 14 17 17 17 15 22 25 30 30 25 21 20 18 15 12 12 12 11 10 9 10 10 10
6 2 3 6 5 5 10 5 7 9 7 10 12 14 12 11 9 5 7 7 13 17 17 16 15 20 24 29 30 28 25 22 19 16 16 14 13 11 11 10 7 4 4 6
9 6 3 4 4 8 7 8 3 8 7 9 14 9 6 6 4 15 20 23 5 17 14 18 26 27 29 29 30 28 24 23 21 19 18 16 14 13 10 8 5 2 2 6
13 13 5 3 4 5 10 3 5 5 1 1 10 8 8 6 5 3 12 15 19 3 20 22 26 28 28 29 30 29 27 25 23 20 17 14 12 11 8 6 2 1 4 8
5 7 6 5 5 2 5 7 2 6 6 4 7 9 7 6 5 8 18 12 28 20 29 29 29 24 24 27 28 25 25 23 21 18 15 14 11 9 5 3 1 4 9 13
2 2 4 2 3 6 7 4 5 7 4 6 6 8 21 19 18 22 18 5 12 25 38 27 26 25 26 25 25 23 22 21 22 20 16 13 9 6 7 4 3 8 11 13
3 5 3 3 1 8 17 1 5 3 7 6 5 17 21 21 14 21 26 7 18 34 34 28 27 27 26 25 24 24 24 24 23 19 17 12 9 5 4 4 6 10 15 17
6 3 4 5 7 11 18 12 8 6 8 12 9 18 18 12 14 11 24 21 16 26 17 27 29 26 25 26 20 23 25 26 22 19 16 11 7 6 7 7 10 13 14 8
3 7 3 3 8 4 11 13 4 4 11 7 10 16 18 14 8 12 8 8 11 12 22 26 28 23 19 27 27 24 21 18 13 13 13 7 4 4 4 3 7 6 12 14
4 5 2 2 4 1 8 21 18 13 10 8 8 12 15 16 19 24 17 16 20 19 25 24 17 20 23 19 19 17 14 12 10 9 9 7 6 7 8 10 12 13 16 21
Wind_Direction
231 207 248 245 208 163 79 94 351 251 245 118 161 222 162 168 165 169 169 162 165 171 154 162 170 161 159 159 165 170 177 175 176 179 194 217 200 159 182 179 205 201 169 157
257 214 245 259 152 183 118 120 185 256 210 107 129 234 226 175 178 171 173 167 168 178 152 165 181 153 155 166 172 170 164 171 174 169 189 205 229 179 190 176 181 182 150 145
199 228 236 243 180 201 152 166 213 216 192 142 130 85 297 232 20 187 177 172 170 175 161 169 179 162 163 168 173 178 175 175 176 186 205 182 147 176 192 191 189 169 161 147
237 240 246 245 243 192 203 165 264 236 154 194 147 207 241 247 260 223 203 174 174 174 163 175 179 173 169 175 179 183 185 192 196 195 209 213 219 189 227 242 204 168 190 178
248 248 255 251 226 242 256 164 205 217 357 77 208 86 285 38 290 265 202 181 177 178 179 176 185 180 178 177 181 186 188 194 200 203 212 214 216 215 231 182 200 188 181 193
256 270 287 233 277 281 300 339 335 316 166 262 258 123 218 166 113 274 244 174 189 177 182 183 184 188 176 178 179 185 187 193 201 205 210 209 207 217 233 179 163 177 181 198
282 263 282 274 23 333 341 340 336 334 348 227 118 97 210 200 199 199 222 205 183 188 180 188 180 181 174 174 179 182 187 191 196 202 209 211 209 223 216 194 172 177 202 226
224 289 245 259 177 215 269 202 167 238 243 260 107 142 265 220 208 225 244 196 194 191 183 182 183 174 174 174 176 178 186 190 197 201 208 214 216 214 220 209 200 238 237 217
220 248 233 207 173 164 263 281 235 250 304 25 153 225 359 214 218 252 299 258 249 209 178 176 172 169 172 172 172 176 183 192 199 202 206 210 216 216 217 220 227 227 207 185
257 302 273 229 190 202 174 238 356 343 255 284 324 173 200 220 187 178 226 237 230 244 170 178 167 169 167 172 173 179 185 192 201 204 208 206 215 220 219 225 238 231 209 204
222 190 279 102 155 174 189 270 271 175 158 194 174 251 200 191 201 180 223 227 221 218 175 171 173 166 161 165 167 173 180 187 195 201 200 200 206 217 222 224 228 214 214 204
209 180 263 225 215 180 193 208 196 129 278 246 168 250 179 192 210 164 210 160 145 89 45 346 189 161 159 159 160 169 175 184 192 192 191 196 199 212 213 229 232 229 237 243
329 254 299 325 328 199 182 229 223 219 228 257 188 226 187 123 135 157 140 138 116 128 134 223 237 191 158 157 159 163 173 180 182 183 191 192 199 207 218 217 222 226 234 238
60 239 175 213 225 106 218 202 229 202 200 250 256 82 18 147 173 111 112 126 149 161 174 202 170 199 148 150 159 164 167 172 173 178 170 172 182 194 206 201 208 222 239 237
133 269 258 262 275 281 257 190 214 230 241 169 224 147 151 141 127 126 121 109 130 169 188 180 168 143 133 137 145 154 157 163 167 167 174 186 199 204 219 222 222 233 241 244
259 269 291 301 297 291 292 235 211 200 229 257 258 260 211 154 127 150 145 137 144 122 119 125 122 125 133 136 138 140 143 145 154 157 156 140 160 186 201 207 210 233 246 256
210 205 280 269 278 297 314 256 289 236 204 201 231 190 204 88 141 161 160 150 150 126 130 126 126 127 129 130 134 135 142 152 153 144 150 174 187 194 207 215 232 247 259 265
277 234 206 247 314 298 246 249 229 256 241 216 120 158 175 177 188 126 23 148 130 134 131 123 125 124 126 135 140 146 146 143 151 171 182 189 198 200 209 216 210 220 253 276
260 266 236 178 229 254 246 281 29 48 353 75 102 107 74 52 111 38 29 354 163 139 138 131 132 135 139 144 145 145 149 157 162 176 185 177 188 185 178 192 190 161 281 288
244 249 177 272 213 242 231 122 53 12 63 266 120 130 128 115 99 189 50 10 351 82 133 132 130 134 136 143 149 149 159 163 165 158 160 161 164 148 132 126 124 3 313 309
323 276 216 247 240 232 260 278 142 81 247 283 137 146 125 88 102 84 59 70 305 339 316 126 125 130 138 147 153 153 159 156 152 151 145 137 134 137 148 154 171 316 311 315
206 17 279 308 273 288 204 337 122 182 225 343 99 119 109 112 120 101 94 92 241 279 301 116 120 130 146 149 151 147 151 154 152 151 144 142 146 142 188 183 282 307 304 302
355 154 183 95 232 322 324 167 298 293 114 263 119 134 139 146 164 140 110 163 219 244 243 134 134 142 149 152 158 165 162 160 157 154 154 156 157 176 217 259 293 295 302 303
193 190 107 50 3 27 330 309 334 128 212 240 148 147 158 166 169 143 158 170 177 225 163 141 145 154 154 167 178 182 164 162 159 159 157 164 178 233 260 269 275 290 321 31
301 34 139 114 74 312 316 286 192 305 214 179 134 161 174 145 132 134 179 146 213 196 147 141 131 128 129 132 132 138 145 149 161 164 153 174 223 271 339 310 309 46 35 22
144 191 153 91 92 270 261 282 305 317 261 142 117 110 135 118 107 76 298 303 199 138 143 138 109 95 106 84 101 123 131 131 122 115 95 80 58 35 26 45 65 47 45 71